www.pogodaiklimat.ru

Погода и климат >> Архив погоды >> Ирак >> Эль-Фао


ПОГОДА в Эль-Фао

  • Прогноз погоды в Эль-Фао
  • Монитор погоды в Эль-Фао

АРХИВ ПОГОДЫ в Эль-Фао

Время (UTC), дата Ветер
(напр.,м/с)
 
Видим.   Явления Облачность Т
(С)
Тd
(С)
f
(%)
Тe
(С)
Тes
(С)
Комфортность P
(гПа)
Po
(гПа)
Тmin
(С)
Tmax
(С)
R
(мм)
R24
(мм)
S
(см)
18 11.08 СЗ 2 10 км ясно +37.6 +9.1 18 +36 +36 очень
жарко
997.4 997.2 +46.2
21 11.08 З 2 10 км ясно +34.4 +7.7 19 +33 +33 жарко 997.2 997.0
00 12.08 З 2 10 км ясно +33.5 +9.0 22 +32 +32 жарко 996.0 995.8
03 12.08 З 2 10 км 1/1 1200 м
[Cu hum]
+31.2 +11.0 29 +31 +32 жарко 996.8 996.6
06 12.08 СЗ 3 10 км 1/0
[Ci fib]
+39.2 +8.6 16 +37 +48 очень
жарко
998.4 998.2 +29.0
12 12.08 СЗ 3 10 км 3/0
[Ac trans Ci fib]
+48.0 +9.1 10 +46 +54 опасность
перегрева
995.2 995.0
15 12.08 ЮВ 3 10 км 3/0
[Ac trans Ci fib]
+41.2 +16.4 24 +43 +43 опасность
перегрева
995.6 995.4
18 12.08 СЗ 2 10 км 5/3 1200 м
[Cu hum Ac trans Ci fib]
+40.4 +11.0 17 +39 +39 очень
жарко
996.2 996.0 +48.4
21 12.08 ЮВ 2 10 км 3/0
[Ac trans Ci fib]
+35.8 +22.6 47 +45 +45 опасность
перегрева
997.0 996.8
00 13.08 Ю 2 10 км 3/0
[Ac trans Ci fib]
+34.2 +23.0 52 +44 +44 опасность
перегрева
997.6 997.4
03 13.08 штиль 0 10 км 3/0
[Ac trans Ci fib]
+32.8 +18.4 42 +37 +38 очень
душно
999.2 999.0
06 13.08 СЗ 3 10 км ясно +40.0 +9.2 16 +38 +49 очень
жарко
1000.8 1000.6 +31.6
09 13.08 СВ 2 10 км ясно +44.8 +11.0 14 +44 +64 опасность
перегрева
1000.4 1000.2
12 13.08 ЮВ 3 10 км 3/0
[Cc]
+40.6 +24.5 40 +52 +60 опасность
перегрева
999.0 998.8
15 13.08 ЮВ 3 10 км 5/0
[Ac trans Cc]
+36.2 +27.2 60 +55 +55 опасность
перегрева
999.2 999.0
18 13.08 ЮВ 3 10 км 1/0
[Ac trans Ci fib]
+34.0 +28.6 74 +57 +57 опасность
перегрева
1000.8 1000.6 +45.2
21 13.08 ЮВ 2 10 км ясно +33.0 +29.5 82 +58 +58 опасность
перегрева
1001.0 1000.8
00 14.08 ЮВ 2 10 км 3/0
[Ac trans Ci fib]
+32.2 +27.8 78 +52 +52 опасность
перегрева
1000.4 1000.2
06 14.08 Ю 2 10 км 5/0
[Ac trans Ci sp]
+37.6 +20.6 37 +44 +53 опасность
перегрева
1002.8 1002.6 +31.2
09 14.08 СЗ 3 10 км 1/0
[Ci sp]
+45.2 +12.9 15 +45 +61 опасность
перегрева
1001.8 1001.6
12 14.08 ЮВ 4 10 км ясно +40.2 +24.6 41 +52 +59 опасность
перегрева
1000.4 1000.2
15 14.08 ЮВ 3 10 км 1/0
[Ci fib]
+36.0 +27.9 63 +56 +56 опасность
перегрева
1000.0 999.8
18 14.08 ЮВ 2 10 км 4/0
[Ac trans Ci fib]
+35.2 +26.7 62 +53 +53 опасность
перегрева
1002.2 1002.0 +46.2
00 15.08 ЮВ 2 10 км ясно +32.6 +27.0 72 +50 +50 опасность
перегрева
1002.2 1002.0
03 15.08 З 2 10 км 1/0
[Ac trans]
+32.2 +27.8 78 +52 +53 опасность
перегрева
1003.2 1003.0
06 15.08 СЗ 3 10 км 1/0
[Ci fib]
+39.2 +14.1 23 +40 +50 очень
душно
1004.0 1003.8 +31.6
09 15.08 СЗ 3 10 км 3/0
[Ci sp]
+44.4 +13.6 17 +45 +61 опасность
перегрева
1003.4 1003.2
12 15.08 СЗ 3 10 км 3/0
[Ci sp]
+47.5 +13.2 14 +47 +55 опасность
перегрева
1000.8 1000.6
15 15.08 СЗ 3 10 км 5/0
[Ac cast Ci sp]
+44.6 +11.2 14 +43 +43 опасность
перегрева
1000.4 1000.2
18 15.08 СЗ 2 10 км 4/0
[Ac trans Ci sp]
+40.6 +13.0 20 +41 +41 опасность
перегрева
1002.4 1002.2 +47.8
21 15.08 З 3 10 км 3/0
[Ci sp]
+37.2 +13.5 24 +37 +37 очень
жарко
1003.0 1002.8
00 16.08 З 3 10 км 3/0
[Ac trans Ci sp]
+34.8 +11.8 25 +35 +35 очень
жарко
1002.6 1002.4
03 16.08 З 4 10 км 4/0
[Ac trans Ci fib]
+33.8 +4.5 16 +31 +32 жарко 1003.6 1003.4
06 16.08 З 3 10 км 1/0
[Ac trans Ci fib]
+40.4 +7.3 14 +38 +48 очень
жарко
1004.2 1004.0 +32.0
12 16.08 СЗ 6 10 км 1/0
[Ci fib]
+46.0 +5.6 9 +43 +47 опасность
перегрева
1001.6 1001.4
15 16.08 СЗ 2 10 км ясно +42.0 +10.7 16 +41 +41 опасность
перегрева
1000.4 1000.2
18 16.08 СЗ 2 10 км 1/0
[Ac trans]
+37.6 +5.2 14 +35 +35 очень
жарко
1002.2 1002.0 +46.2
21 16.08 З 2 10 км ясно +34.8 +4.6 15 +32 +32 жарко 1002.2 1002.0
00 17.08 СЗ 3 10 км ясно +32.6 +11.2 27 +32 +32 жарко 1001.2 1001.0
03 17.08 СЗ 2 10 км ясно +30.8 +11.3 30 +31 +32 жарко 1001.8 1001.6
06 17.08 СЗ 3 10 км ясно +38.2 +9.1 17 +36 +47 очень
жарко
1002.2 1002.0 +28.6
09 17.08 СЗ 4 10 км ясно +43.0 +4.0 9 +40 +53 опасность
солнечного
удара
1001.8 1001.6
12 17.08 СЗ 3 10 км ясно +44.2 +2.3 8 +41 +49 опасность
перегрева
999.4 999.2
15 17.08 СЗ 3 10 км ясно +41.4 +2.2 9 +38 +38 очень
жарко
999.0 998.8
18 17.08 СЗ 2 10 км ясно +36.5 +7.2 17 +34 +34 очень
жарко
1000.4 1000.2 +44.8
21 17.08 СЗ 2 10 км ясно +33.2 +6.0 18 +31 +31 жарко 1001.2 1001.0
03 18.08 З 3 10 км ясно +29.4 +9.6 29 +29 +30 жарко 1001.6 1001.4
06 18.08 СЗ 3 10 км ясно +37.2 +6.8 16 +35 +45 очень
жарко
1003.4 1003.2 +26.6
09 18.08 СЗ 3 10 км ясно +41.5 +6.4 12 +39 +56 опасность
солнечного
удара
1003.2 1003.0
15 18.08 ЮВ 2 10 км ясно +38.4 +14.7 25 +39 +40 очень
душно
1002.0 1001.8

 

Местоположение метеостанции Эль-Фао (Ирак): широта 29.98 долгота 48.50 высота над уровнем моря 2 м.

В архиве по умолчанию представлена погода в Эль-Фао за последнюю неделю. Архивные данные за месяц целиком и за предыдущие месяцы, начиная с января 2011 года, Вы можете получить, выбрав интересующий диапазон дат из раскрывающегося списка и нажав кнопку "Ввод!".


*Определитесь, кто Вы:
робот инопланетянин человек

Внимание! Время в таблицах - всемирное. Для получения местного времени необходимо прибавить поправку, которая равна 3 ч.

Смотрите также архив погоды в соседних городах и на ближайших метеорологических станциях:

Погода на Бубияне (Кувейт) (26 км)
Погода в Абадане (Иран) (50 км)
Погода Остров Файлака (Кувейт) (61 км)
Погода на Метеостанции Sabriyah (Кувейт) (68 км)
Погода в Абдали (Кувейт) (78 км)
Погода в Аль-Шуаиба (Кувейт) (80 км)
Погода в Кувейт Сити (Кувейт) (84 км)
Погода в Басре аэропорт (Ирак) (92 км)
Погода на Экспериментальной ферме (Кувейт) (94 км)
Погода в Басре (Ирак) (95 км)

Пояснения к столбцам:

Ветер - указаны скорость ветра в м/с - средняя за 10 мин, порывы в срок и между сроками (в фигурных скобках) и направление, откуда дует ветер: С - северный, СВ - северо-восточный, В - восточный, ЮВ - юго-восточный, Ю - южный, ЮЗ - юго-западный, З - западный, СЗ - северо-западный.
Видимость - горизонтальная дальность видимости в метрах или километрах. При видимости от 1 до 10 км при отсутствии осадков обычно наблюдается дымка, при ухудшении видимости до 1 км и менее - туман. В сухую погоду видимость может ухудшаться дымом, пылью или мглою.
Явления - указаны атмосферные явления, наблюдавшиеся в срок или в последний час перед сроком; фигурными скобками обозначены явления, наблюдавшиеся между сроками (за 1-3 часа до срока); квадратными скобками обозначены град или гололедные отложения с указанием их диаметра в мм.
Облачность - указаны через наклонную черту общая и нижняя облачность в баллах и высота нижней границы облаков в метрах; квадратными скобками обозначены формы облаков: Ci - перистые, Cs - перисто-слоистые, Cc - перисто-кучевые, Ac - высококучевые, As - высокослоистые, Sc - слоисто-кучевые, Ns - слоисто-дождевые, Cu - кучевые, Cb - кучево-дождевые. Подробнее классификацию облаков см. в Атласе облаков (PDF).
T - Температура воздуха - температура, измеренная на высоте 2 м над землей.
Td - Температура точки росы - температура, при понижении до которой содержащийся в воздухе водяной пар достигнет насыщения.
f - Относительная влажность воздуха - влажноcть воздуха, измеренная на высоте 2 м над землей.
Te - Эффективная температура - температура, которую ощущает одетый по сезону человек в тени. Характеристика душности погоды. При расчете учитывается влияние влажности воздуха и скорости ветра на теплоощущения человека.
Tes - Эффективная температура на солнце - температура, которую ощущает человек, с поправкой на солнечный нагрев. Характеристика знойности погоды. Зависит от высоты солнца над горизонтом, облачности и скорости ветра. Ночью, в пасмурную погоду, а также при ветре 12 м/с и более поправка равна нулю.
P - Атмосферное давление - приведенное к уровню моря атмосферное давление.
Po - Атмосферное давление - измеренное на уровне метеостанции атмосферное давление.
Tmin - Минимальная температура - минимум температуры воздуха на высоте 2 м над землей.
Tmax - Максимальная температура - максимум температуры воздуха на высоте 2 м над землей.
R - Количество осадков - Количество выпавших осадков за период времени, мм. При наведении курсора мыши на число - период времени, за который выпало указанное количество осадков.
R24 - Количество осадков - Количество выпавших осадков за 24 часа, мм.
S - Снежный покров - Высота снежного покрова, см. При наведении курсора мыши на число - состояние снежного покрова и степень покрытия местности в баллах.